Погода в Магнитогорске

Погода в Магнитогорске : погода сейчас, прогноз погоды и архив. Всё, что Вы хотите узнать о погоде в Магнитогорске!

Хотите узнать прогноз погоды в Магнитогорске? Тогда Вам сюда: Погода в Магнитогорске

Поиск расширенной информации на нашем сайте:

Другие новости

Новости СМИ2

Главная страница сайта

Новости сайта

02.10.2013

Напоминаем, что на нашем новом сайте вы можете получить высокодетализированные прогнозы погоды по пунктам России, СНГ и мира (включающие важные для авиации метеовеличины, такие как направление и скорость ветра, видимость, явления погоды, количество и форма облачности, нижняя и верхняя граница облачности), а также ознакомиться с разнообразными материалами по авиационной метеорологии и подборкой полезных ссылок на эту тему.

Сайт Метеоцентр.Азия посвящён разработке технологий оптимизации авиаметеорологического обслуживания, включая проектирование и перспективное создание нескольких автоматизированных авиаметеорологических систем:
- система выпуска высокодетальных прогностических карт явлений погоды для нижнего воздушного пространства по России и ближнему зарубежью;
- система верификации прогнозов TAF (выпускаемых синоптиками официальных АМСГ РФ и ближнего зарубежья) и AUTOTAF (выпускаемых сайтом Метеоцентр.Азия) - выявление ошибок, онлайн-сопоставление с фактической погодой METAR, автоматическое внесение коррективов в прогнозы при резком отклонении фактической погоды от прогноза, подсчёт оправдываемости прогнозов по элементам и в целом;
- система обработки, анализа и отображения авиаметеорологической информации для применения провайдерами метеорологической информации.

Рекомендуем: Строительные компании проектно Строительные.

Погода в Магнитогорске - сегодня

Время (UTC), дата Ветер
(°,м/с) 
Видим.   Явления Облачность Т
(°С)
Тd
(°С)
f(%) Тe
(°С)
Pmin
(гПа)
dP
(гПа)
Po
(мм)
O2
(г/м3)
Тmin Tmax R s Состояние
почвы
00 24.03.17 тихо ()   4000 м    4/4 600 м 
[Sc]
-2 -4 86 -2  1020.8  -1.3  730  297           
03 24.03.17 тихо ()   10 км    8/8 600 м 
[Sc]
-1.5 -3.3 88 -2  1020.2  -0.4  729  296  -3.7      <0.5  мокрый или
старый снег
50-90% 
06 24.03.17 290 (З) 20000 м    10/10 600 м 
[Sc]
+1.3 -3 73 1019.3  -0.4  729  293           
09 24.03.17 290 (З) 20000 м    10/10 600 м 
[Sc]
+1.3 -3.2 72 1018.5  -0.8  728  292           
12 24.03.17 310 (СЗ) 20000 м  {снег}  9/9 600 м 
[Sc]
+1.8 -3.9 66 1018.1  -0.3  728  292           
15 24.03.17 350 (С) 10 км    8/8 600 м 
[Sc]
+0.5 -4.6 69 -2  1019.3  0.9  729  294    +2.5  0.0     
18 24.03.17 320 (СЗ) 10 км    9/9 600 м 
[Sc]
-0.2 -5.5 67 -1  1020.6  1.1  730  295           
21 24.03.17 220 (ЮЗ) 10 км    8/8 600 м 
[Sc]
-4 -7.1 79 -4  1021.7  0.4  730  299           
00 25.03.17 170 (Ю) 10 км    4/4 600 м 
[Sc]
-6 -8.1 85 -6  1022.4  0.3  730  302           
03 25.03.17 080 (В) 10 км    3/0 верхняя 
[Ci fib]
-6.5 -8 89 -6  1021.6  -0.8  730  302  -7.2      мокрый или
старый снег
50-90% 
06 25.03.17 180 (Ю) 20000 м    6/0 верхняя 
[Ci fib]
-1.8 -5.4 76 -4  1020.3  -0.4  729  296           
09 25.03.17 180 (Ю) 8-12{12}  20000 м    6/6 600 м 
[Sc]
-0.2 -3.8 77 -4  1018.3  -1.6  728  294           
12 25.03.17 180 (Ю) 8-12{13}  10 км    8/8 600 м 
[Sc]
-0.6 -3.9 78 -5  1016.5  -1.8  727  294           
15 25.03.17 180 (Ю) 5{12}  10 км    6/0 средняя 
[Ac trans]
-2.3 -4.8 83 -6  1015.9  -0.9  726  296    +0.2       
18 25.03.17 190 (Ю) 8-12{13}  10 км    8/0 средняя 
[Ac trans]
-1.1 -3.1 86 -6  1014.9  -0.8  725  294           
21 25.03.17 190 (Ю) 6-10{13}  10 км    9/0 средняя 
[Ac trans]
-1.3 -2.5 92 -5  1013.5  -1.4  725  294           
00 26.03.17 180 (Ю) 6-10{13}  10 км    10/0 средняя 
[As trans]
-1.5 -2.3 94 -5  1011.9  -1.5  723  293           
03 26.03.17 190 (Ю) 6-10{13}  10 км  дымка{снег}  10/0 средняя 
[As op]
-0.5 -1.4 94 -4  1010.6  -1.1  723  292  -2.3    0.0  мокрый или
старый снег
50-90% 
06 26.03.17 190 (Ю) 6{12}  20000 м  {снег}  10/0 средняя 
[As trans]
+0.8 -0.5 91 -3  1009.8  -0.5  722  290           
09 26.03.17 230 (ЮЗ) 4{10}  20000 м    8/0 средняя 
[Ac trans]
+3.2 -1.9 69 +1  1009.5  722  288           
12 26.03.17 220 (ЮЗ) 5{11}  20000 м    4/0 средняя 
[Ac trans]
+3.6 -6.4 48 +1  1009.2  -0.3  722  288           
15 26.03.17 220 (ЮЗ) 10 км    ясно 
-1.9 -6.5 71 -4  1010.9  0.7  723  294    +4.3       
18 26.03.17 240 (ЮЗ) 10 км    ясно 
-2.8 -9 62 -6  1012.2  1.1  723  295           
21 26.03.17 220 (ЮЗ) 10 км    ясно 
-5 -8.3 78 -6  1012.4  -0.2  723  298           
00 27.03.17 170 (Ю) 10 км    ясно 
-6.2 -9.2 79 -9  1012.2  -0.3  723  299           
Время (UTC), дата Ветер
(°,м/с) 
Видим.   Явления Облачность Т
(°С)
Тd
(°С)
f(%) Тe
(°С)
Pmin
(гПа)
dP
(гПа)
Po
(мм)
O2
(г/м3)
Тmin Tmax R s Состояние
почвы

Для получения пояснительной информации подведите курсор к названию столбца.

ПОГОДА в Магнитогорске - архив

Всё, что Вы хотите узнать о погоде в Магнитогорске - удобно и подробно!

Выберите нужную дату (начиная с 1 января 2015* года) и нажмите кнопку "Найти".
Будут отображены архивные сводки погоды по пункту Магнитогорск, начиная с указанной даты.


Отображать данные в формате CSV (для использования в таблицах Excel)


Внимание! Наш архив погоды предназначен исключительно для личного некоммерческого использования в познавательных целях. Если Вам необходимы официальные справки о состоянии погоды (для производственных, юридических, коммерческих и т.п. целей), обращайтесь в органы Росгидромета.

*Примечание: данная дата относится к архиву по метеостанциям СССР (Россия, СНГ, Балтия).
Архив по метеостанциям Зарубежной Европы и Азии (кроме Китая) хранится 10 дней, по другим регионам земного шара (Китай, Африка, Америка, Австралия, Океания) - 1 день.

Магнитогорск - район местоположения метеостанции


Название, широта, долгота, высота метеостанции:
Магнитогорск 53.3°ш. 59.1°д. 384 м над ур. моря [Российская Федерация]

Дополнительная информация

В oтличие oт бoльшинства пoгoдных сайтoв мы публикуем пoдрoбную метеoинфoрмацию в детальнoм прoфессиoнальнoм фoрмате.

Характеристики температуры и влажнoсти вoздуха измеряются на высoте 2 м в тени вдали oт зданий и деревьев.
Скoрoсть ветра измеряется на высoте 10 м (на урoвне рoста челoвека скoрoсть ветра ниже в 1.5-2 раза). Если метеoстанция нахoдится в гoрoде или в лесу, тo скoрoсть ветра занижена на 2-4 м/с пo сравнению с oткрытым местoм. Скoрoсть ветра над акватoриями крупных рек и oзёр, а также на вершинах хoлмoв на 2-5 м/с выше, чем в oбычных услoвиях.
Атмoсфернoе давление в разных тoчках местнoсти мoжет значительнo oтличаться oт давления на метеoстанции, в зависимoсти oт услoвий рельефа (при пoдъёме на 10 м давление пoнижается примернo на 1 мм рт.ст.).